[[{"header":{"parameterUnit":"m.s-1","parameterCategory":1,"la1":30.2991,"la2":30.254,"lo1":-89.0895,"lo2":-89.0444,"dy":0.0017,"dx":0.0017,"nx":28,"ny":28,"refTime":"2024-02-09T09:00:00:Z","depth":0,"parameterNumber":2,"parameterNumberName":"U-component_of_WINDS"},"data":[0,0,0,0,0,0,0,0,0,0,0,0,0,0,0,0,0,0,0,0,0,0,0,0,0,0,0,0,0,0,0,0,0,0,0,0,0,0,0,0,0,0,0,0,0,0,0,0,0,0,0,0,0,0,0,0,0,0,-2.5658,-2.5658,0,-2.5668,-2.5668,-2.5668,-2.5626,-2.5625,-2.5624,-2.5623,-2.5633,-2.5634,-2.5636,0,0,0,0,0,0,0,0,0,0,0,0,0,-2.5602,-2.5604,-2.5658,-2.5658,-2.5658,-2.5668,-2.5668,-2.5668,-2.5626,-2.5625,-2.5623,-2.5622,-2.5633,-2.5634,-2.5636,0,0,0,0,0,0,0,0,0,0,0,0,0,-2.5621,-2.5604,-2.5657,-2.5638,-2.5637,-2.5668,-2.5668,-2.5668,-2.5627,-2.5625,-2.5623,-2.5621,-2.5632,-2.5634,-2.5636,-2.5686,0,0,-2.5643,-2.5644,0,0,0,0,0,0,0,0,-2.562,-2.5623,-2.5641,-2.564,-2.5638,-2.5644,-2.5652,-2.5674,-2.5627,-2.563,-2.5623,-2.562,-2.5638,-2.564,-2.5646,-2.5687,-2.5687,-2.5643,-2.5644,-2.5645,-2.5646,0,0,0,0,0,0,0,-2.5619,-2.5622,-2.5661,-2.5641,-2.5639,-2.5629,-2.563,-2.5656,-2.5644,-2.563,-2.5627,-2.5629,-2.5637,-2.5644,-2.5645,-2.5687,-2.5643,-2.5645,-2.5646,-2.5647,-2.5769,-2.5771,0,0,0,0,0,0,-2.562,-2.5621,-2.5661,-2.5662,-2.5624,-2.5632,-2.5632,-2.5644,-2.5644,-2.5642,-2.563,-2.5627,-2.5641,-2.5643,-2.5646,-2.5703,-2.5645,-2.5647,-2.5648,-2.5767,-2.5769,-2.5771,0,0,0,0,0,0,-2.5619,-2.5624,-2.5661,-2.5641,-2.5645,-2.5635,-2.5648,-2.5645,-2.5651,-2.5644,-2.5642,-2.5639,-2.5639,-2.5643,-2.5676,-2.5703,-2.5648,-2.565,-2.5764,-2.5767,-2.577,-2.5819,0,0,0,0,0,0,-2.5617,-2.5624,-2.5643,-2.5642,-2.5646,-2.5691,-2.5649,-2.5646,-2.5655,-2.5651,-2.5652,-2.5651,-2.5638,-2.5673,-2.5678,-2.5705,-2.5652,-2.5762,-2.5766,-2.5769,-2.5815,-2.5823,-2.583,0,0,0,0,0,-2.5616,-2.5656,-2.5644,-2.5649,-2.5669,-2.5693,-2.5695,-2.568,-2.5658,-2.5676,-2.5672,-2.565,-2.57,-2.5677,-2.5682,-2.571,-2.576,-2.5765,-2.5769,-2.5811,-2.5822,-2.583,0,0,0,0,0,0,-2.5661,-2.5656,-2.5642,-2.5683,-2.5689,-2.5686,-2.5709,-2.5692,-2.5704,-2.5699,-2.568,-2.5681,-2.5717,-2.5717,-2.5692,-2.5758,-2.5726,-2.5732,-2.5756,-2.5766,-2.5773,-2.5772,-2.5653,0,0,0,0,0,-2.5676,-2.5695,-2.569,-2.5727,-2.573,-2.5719,-2.5729,-2.5717,-2.5722,-2.5724,-2.5722,-2.5727,-2.5744,-2.5755,-2.577,-2.5815,-2.5814,-2.5837,-2.5845,-2.5851,-2.5856,-2.5878,-2.5888,-2.5786,-2.5786,-2.5786,0,0,-2.5706,-2.5706,-2.5719,-2.5736,-2.5738,-2.5759,-2.5721,-2.5745,-2.5759,-2.5727,-2.5758,-2.5757,-2.5762,-2.5802,-2.5819,-2.5802,-2.5884,-2.5857,-2.5862,-2.5863,-2.5884,-2.5894,-2.5902,-2.5789,-2.5788,-2.5788,0,0,-2.5772,-2.5774,-2.5805,-2.5808,-2.5813,-2.5805,-2.5813,-2.5813,-2.581,-2.5841,-2.5817,-2.5835,-2.5864,-2.5868,-2.5874,-2.5942,-2.5922,-2.5948,-2.5987,-2.601,-2.6018,-2.6025,-2.6048,-2.6056,-2.5953,-2.5953,-2.5953,0,-2.5809,-2.5839,-2.5823,-2.5847,-2.5855,-2.5827,-2.5857,-2.5862,-2.5871,-2.5877,-2.5859,-2.5895,-2.5896,-2.5935,-2.5952,-2.5958,-2.5965,-2.5947,-2.6018,-2.6025,-2.6031,-2.6053,-2.6062,-2.5956,-2.5955,-2.5955,-2.5955,0,-2.5884,-2.5905,-2.5929,-2.5938,-2.5949,-2.5977,-2.5964,-2.5977,-2.5964,-2.5959,-2.599,-2.5991,-2.6005,-2.6014,-2.6002,-2.6052,-2.6041,-2.6021,-2.5988,-2.6044,-2.6064,-2.6072,-2.596,-2.5959,-2.5958,-2.5957,0,0,-2.5978,-2.5978,-2.5987,-2.599,-2.5994,-2.6009,-2.6036,-2.6049,-2.606,-2.6068,-2.6089,-2.6114,-2.6095,-2.6102,-2.609,-2.611,-2.6162,-2.6087,-2.6087,-2.61,-2.6216,-2.623,-2.624,-2.615,-2.6152,-2.6153,-2.6215,0,-2.6041,-2.6085,-2.6072,-2.6116,-2.6135,-2.6109,-2.6132,-2.6136,-2.6132,-2.6147,-2.6142,-2.616,-2.6134,-2.6138,-2.6157,-2.6152,-2.6185,-2.6148,-2.6169,-2.617,-2.6167,-2.625,-2.6266,-2.6324,-2.6223,-2.6224,-2.6225,0,-2.6121,-2.6131,-2.6178,-2.6177,-2.6184,-2.6205,-2.6216,-2.6231,-2.6236,-2.6231,-2.6239,-2.6223,-2.6248,-2.6217,-2.6251,-2.6226,-2.6234,-2.6233,-2.6235,-2.6235,-2.62,-2.6251,-2.6342,-2.635,-2.6237,-2.6236,-2.6235,0,-2.6183,-2.6208,-2.6239,-2.6243,-2.6244,-2.6259,-2.626,-2.6262,-2.6271,-2.6281,-2.6287,-2.63,-2.6307,-2.6317,-2.6305,-2.6283,-2.6341,-2.6308,-2.6337,-2.6337,-2.6349,-2.6348,-2.6441,-2.6357,-2.6357,-2.6357,-2.6356,0,-2.6254,-2.6283,-2.6267,-2.6286,-2.6317,-2.6302,-2.6333,-2.6331,-2.6334,-2.6352,-2.6331,-2.6348,-2.6332,-2.6348,-2.6339,-2.6368,-2.6371,-2.6368,-2.6365,-2.6369,-2.6369,-2.6373,-2.6368,-2.6359,-2.6358,-2.6358,-2.6358,0,-2.6328,-2.6318,-2.635,-2.6348,-2.6348,-2.6371,-2.6369,-2.6387,-2.6381,-2.6404,-2.6408,-2.6399,-2.6417,-2.6406,-2.6424,-2.6418,-2.6455,-2.6448,-2.6454,-2.6451,-2.6479,-2.6476,-2.6576,-2.6588,-2.6498,-2.6499,-2.65,0,-2.6373,-2.6395,-2.6395,-2.6405,-2.6408,-2.6425,-2.6434,-2.6419,-2.6429,-2.6436,-2.6452,-2.6467,-2.6479,-2.6508,-2.6503,-2.6516,-2.6507,-2.6542,-2.6509,-2.6512,-2.6506,-2.6504,-2.6506,-2.6548,-2.6549,-2.655,-2.655,0,-2.6455,-2.6449,-2.6462,-2.6474,-2.6485,-2.6494,-2.6501,-2.6511,-2.6496,-2.6508,-2.6526,-2.6535,-2.6552,-2.6568,-2.6579,-2.658,-2.6562,-2.6561,-2.6568,-2.6571,-2.6573,-2.6571,-2.647,-2.6558,-2.6557,-2.6557,-2.6556,-2.6556,-2.6515,-2.6532,-2.6535,-2.655,-2.6554,-2.6561,-2.6577,-2.6573,-2.6587,-2.66,-2.6591,-2.6611,-2.6615,-2.6628,-2.6631,-2.6646,-2.6633,-2.6643,-2.6646,-2.6648,-2.6651,-2.6572,-2.6649,-2.6649,-2.6648,-2.6648,-2.6648,0,-2.6593,-2.6594,-2.6608,-2.6618,-2.6631,-2.6614,-2.6621,-2.6632,-2.665,-2.6655,-2.6666,-2.6686,-2.67,-2.6697,-2.671,-2.6723,-2.6715,-2.6727,-2.6725,-2.6725,-2.6664,-2.6655,-2.6733,-2.6733,-2.6733,-2.6733,-2.6733,-2.6733,-2.6636,-2.6664,-2.6659,-2.6689,-2.6689,-2.6708,-2.6714,-2.672,-2.6723,-2.6746,-2.6758,-2.6755,-2.6757,-2.677,-2.6782,-2.6781,-2.6786,-2.68,-2.6796,-2.6738,-2.673,-2.6722,-2.6714,-2.6802,-2.6802,-2.6856,-2.6856,-2.6857]},{"header":{"parameterUnit":"m.s-1","parameterCategory":1,"la1":30.2991,"la2":30.254,"lo1":-89.0895,"lo2":-89.0444,"dy":0.0017,"dx":0.0017,"nx":28,"ny":28,"refTime":"2024-02-09T09:00:00:Z","depth":0,"parameterNumber":3,"parameterNumberName":"V-component_of_WINDS"},"data":[0,0,0,0,0,0,0,0,0,0,0,0,0,0,0,0,0,0,0,0,0,0,0,0,0,0,0,0,0,0,0,0,0,0,0,0,0,0,0,0,0,0,0,0,0,0,0,0,0,0,0,0,0,0,0,0,0,0,3.1377,3.1378,0,3.1493,3.1495,3.1496,3.1524,3.1523,3.1522,3.1522,3.1641,3.1645,3.1649,0,0,0,0,0,0,0,0,0,0,0,0,0,3.118,3.1184,3.1377,3.1378,3.138,3.1493,3.1495,3.1496,3.1524,3.1523,3.1522,3.1521,3.164,3.1645,3.1649,0,0,0,0,0,0,0,0,0,0,0,0,0,3.1278,3.1185,3.1377,3.1407,3.1411,3.1493,3.1495,3.1497,3.1524,3.1523,3.1522,3.1521,3.1639,3.1644,3.165,3.1709,0,0,3.1668,3.167,0,0,0,0,0,0,0,0,3.1273,3.1285,3.1401,3.1405,3.141,3.1493,3.1469,3.1568,3.1525,3.1481,3.1522,3.152,3.1593,3.1602,3.1627,3.1715,3.172,3.1668,3.1672,3.1674,3.1676,0,0,0,0,0,0,0,3.1266,3.128,3.1423,3.1403,3.1408,3.1416,3.1428,3.1488,3.1542,3.1485,3.1487,3.1501,3.1595,3.1621,3.163,3.1722,3.1668,3.1673,3.1677,3.1679,3.1869,3.187,0,0,0,0,0,0,3.1253,3.1275,3.1419,3.1426,3.1337,3.142,3.1434,3.1467,3.1542,3.1552,3.1502,3.1502,3.1612,3.1623,3.1634,3.1712,3.1674,3.168,3.1683,3.1867,3.1869,3.1871,0,0,0,0,0,0,3.1249,3.1266,3.1415,3.1351,3.1371,3.1425,3.1462,3.147,3.1497,3.1554,3.1564,3.1518,3.1611,3.1626,3.1691,3.1716,3.1683,3.1688,3.1865,3.1868,3.187,3.1865,0,0,0,0,0,0,3.1243,3.1264,3.1287,3.1352,3.1374,3.1469,3.1463,3.1473,3.1507,3.1508,3.1573,3.1582,3.1611,3.1682,3.1697,3.1724,3.1692,3.1863,3.1866,3.1869,3.1863,3.1867,3.187,0,0,0,0,0,3.1236,3.128,3.1288,3.1305,3.1403,3.147,3.1483,3.1516,3.1508,3.1532,3.157,3.158,3.171,3.1689,3.1706,3.1734,3.1862,3.1865,3.1869,3.1862,3.1866,3.187,0,0,0,0,0,0,3.1216,3.1289,3.1298,3.1364,3.1411,3.1475,3.1506,3.1519,3.1569,3.1568,3.1606,3.1621,3.1685,3.1716,3.169,3.1797,3.1786,3.1793,3.1775,3.178,3.1783,3.1775,3.1697,0,0,0,0,0,3.122,3.1268,3.1329,3.1381,3.1404,3.1451,3.1481,3.1503,3.1553,3.1573,3.1615,3.1663,3.1715,3.1749,3.18,3.1867,3.1883,3.1895,3.1899,3.1901,3.1907,3.1949,3.1956,3.1882,3.1882,3.1882,0,0,3.1227,3.1273,3.1301,3.1379,3.1417,3.1468,3.1467,3.1519,3.1558,3.158,3.1646,3.1678,3.1735,3.1803,3.1834,3.183,3.1931,3.1905,3.1907,3.1912,3.1953,3.196,3.1966,3.1884,3.1884,3.1883,0,0,3.1267,3.1305,3.1355,3.1394,3.1453,3.1484,3.1496,3.1558,3.1581,3.1647,3.1666,3.1712,3.18,3.1841,3.1873,3.1931,3.1943,3.1946,3.1964,3.2004,3.201,3.2015,3.2039,3.2046,3.1952,3.1952,3.1952,0,3.1269,3.1345,3.1378,3.1431,3.1466,3.1489,3.1541,3.1577,3.1649,3.1673,3.1667,3.1781,3.182,3.19,3.1914,3.1938,3.1955,3.194,3.2006,3.2012,3.2018,3.2041,3.2049,3.1952,3.1952,3.1952,3.1952,0,3.1346,3.1398,3.1431,3.1502,3.154,3.1592,3.1634,3.1669,3.1687,3.172,3.1788,3.1836,3.1899,3.1919,3.1937,3.2002,3.1998,3.1998,3.1988,3.2024,3.2047,3.2055,3.1952,3.1952,3.1952,3.1952,0,0,3.1377,3.1467,3.1478,3.1512,3.158,3.1621,3.1674,3.1736,3.1767,3.1816,3.1864,3.1939,3.1941,3.1977,3.2,3.2035,3.2081,3.2032,3.2034,3.2042,3.2159,3.216,3.217,3.2089,3.2091,3.2092,3.2156,0,3.1427,3.1524,3.1556,3.1637,3.1688,3.1711,3.1758,3.1805,3.1837,3.1885,3.192,3.1974,3.1971,3.1994,3.2029,3.2068,3.2106,3.2063,3.2136,3.2138,3.2123,3.2181,3.2181,3.2239,3.2164,3.2166,3.2167,0,3.1499,3.1551,3.1636,3.17,3.1723,3.1764,3.1825,3.187,3.1925,3.1946,3.1988,3.2008,3.2067,3.2052,3.2134,3.2105,3.2137,3.216,3.2163,3.2173,3.2156,3.2195,3.2257,3.2267,3.218,3.2179,3.2178,0,3.1517,3.1607,3.1672,3.1699,3.1774,3.1804,3.1836,3.189,3.1926,3.1979,3.2003,3.2062,3.2095,3.214,3.2177,3.2162,3.2258,3.2245,3.2278,3.2278,3.2299,3.2298,3.237,3.2315,3.2314,3.2314,3.2314,0,3.1571,3.1623,3.1681,3.1721,3.1781,3.1818,3.1877,3.1911,3.1959,3.2006,3.2029,3.2074,3.2118,3.2169,3.2198,3.2264,3.2278,3.2298,3.2305,3.2297,3.2295,3.232,3.2318,3.2317,3.2316,3.2316,3.2315,0,3.1602,3.1642,3.1714,3.178,3.1798,3.1839,3.1896,3.1937,3.1969,3.203,3.2046,3.2098,3.2159,3.22,3.2277,3.2297,3.237,3.2375,3.2352,3.2356,3.2389,3.2386,3.2482,3.2498,3.2429,3.2429,3.243,0,3.1635,3.1676,3.1747,3.1781,3.1814,3.1868,3.1905,3.1944,3.1982,3.2049,3.2082,3.2144,3.2197,3.2294,3.2339,3.2399,3.2408,3.2438,3.2417,3.2409,3.2413,3.2411,3.2417,3.2441,3.2442,3.2442,3.2443,0,3.1691,3.171,3.1763,3.1824,3.1868,3.1917,3.1967,3.1993,3.2041,3.2082,3.2146,3.2186,3.2267,3.233,3.2395,3.243,3.2446,3.2449,3.246,3.2454,3.244,3.2451,3.2364,3.2447,3.2446,3.2446,3.2446,3.2446,3.1727,3.1766,3.1823,3.1881,3.1923,3.1969,3.2011,3.205,3.2103,3.2172,3.2192,3.2258,3.2314,3.2404,3.244,3.2493,3.249,3.2506,3.2511,3.2515,3.2517,3.2429,3.2505,3.2505,3.2505,3.2504,3.2504,0,3.1787,3.1825,3.1879,3.1948,3.1995,3.2005,3.2061,3.21,3.2158,3.2209,3.2261,3.2335,3.2397,3.2447,3.2512,3.2545,3.2554,3.2561,3.256,3.2569,3.2514,3.2499,3.2553,3.2553,3.2553,3.2553,3.2553,3.2553,3.1824,3.1892,3.1917,3.2006,3.2044,3.211,3.2141,3.2185,3.2226,3.2308,3.236,3.2392,3.2444,3.2512,3.257,3.2584,3.2608,3.2614,3.2629,3.2577,3.2572,3.2567,3.2553,3.2618,3.2618,3.268,3.268,3.2681]}]]